Wind_Speed
4 5 6 7 8 8 9 9 9 9 9 10 10 10 10 11 11 11 11 11 11 11 12 12 13 13 13 13 14 14 13 13 13 11 10 9 8 7 6 6 5 4 4
5 6 8 8 8 8 8 9 9 9 10 10 10 11 10 11 11 11 11 11 12 12 12 12 13 14 14 14 14 15 15 14 14 13 11 10 9 8 8 7 6 5 4
6 8 8 8 8 8 9 10 10 9 9 9 10 10 10 10 11 11 11 12 12 12 12 12 13 13 14 14 14 14 14 15 15 15 13 12 11 10 9 8 7 5 4
7 8 8 8 9 9 10 10 10 10 10 9 10 10 10 11 11 12 12 13 12 13 13 13 14 14 14 14 15 15 16 15 16 15 15 14 12 11 10 9 7 6 5
7 8 8 9 9 9 9 10 10 10 10 10 10 11 11 12 12 13 13 13 13 13 14 13 13 13 14 15 15 16 16 16 16 16 15 15 14 12 11 10 9 7 6
8 9 9 9 9 9 9 10 10 9 9 10 11 12 12 13 13 13 13 13 14 14 14 14 14 14 14 15 15 16 16 16 17 17 16 16 15 13 12 11 10 8 7
8 9 9 10 10 9 9 10 10 10 9 11 12 13 13 13 14 14 14 14 14 14 14 14 14 14 14 14 15 16 17 17 17 18 17 17 16 14 13 12 10 9 8
9 10 10 10 10 9 9 10 10 10 11 12 13 13 13 14 14 14 14 15 15 14 14 14 14 14 13 14 15 16 17 17 18 18 18 18 17 16 15 13 12 11 9
9 9 10 10 9 9 9 10 10 11 12 13 14 14 14 15 15 15 15 15 15 15 14 14 14 14 13 13 14 15 16 17 18 19 18 18 18 17 16 14 13 12 11
10 9 9 9 9 9 10 10 11 12 13 14 14 15 15 16 16 16 16 16 15 15 15 14 14 14 14 13 14 15 16 17 18 18 18 19 19 18 17 16 14 13 12
10 10 10 9 9 9 9 10 11 12 13 14 15 16 16 16 16 16 16 16 16 16 15 15 14 14 14 14 14 15 15 16 18 18 19 19 19 19 18 17 15 14 13
9 10 10 10 9 10 10 10 11 12 13 14 15 16 17 17 17 17 17 17 17 16 16 15 15 15 15 15 14 15 16 16 18 18 19 20 20 20 19 18 16 15 14
9 10 10 10 10 10 11 11 12 13 14 15 16 17 17 17 17 17 17 17 17 17 17 16 16 15 15 15 15 15 16 17 18 19 19 20 21 20 20 19 18 16 15
9 10 10 10 10 10 11 12 13 14 15 16 17 17 17 18 18 18 18 18 18 17 17 17 17 16 16 15 15 15 16 17 18 19 20 21 21 21 21 21 19 17 15
9 10 10 10 10 11 11 12 13 14 15 16 17 17 18 19 19 19 19 18 18 17 17 17 17 17 17 16 16 15 16 17 18 20 21 22 22 21 21 21 20 19 17
9 9 9 10 10 11 11 12 13 14 15 16 17 17 18 19 20 20 19 18 18 17 18 18 18 17 16 16 15 15 15 17 18 20 21 23 23 22 22 22 21 20 18
9 10 9 10 10 11 12 12 13 14 15 16 17 18 18 19 20 20 19 19 18 18 19 19 18 16 15 15 14 15 15 15 17 19 21 23 23 23 22 22 22 21 20
9 9 10 10 11 11 12 12 13 14 15 16 17 18 19 19 20 20 20 20 19 19 19 19 18 16 14 14 13 13 14 15 16 18 20 23 23 23 22 23 23 22 21
9 9 10 10 11 11 12 13 13 14 15 16 17 18 19 20 20 20 20 21 21 20 19 18 17 16 14 13 12 11 12 14 15 17 20 22 23 22 22 22 23 23 22
8 9 9 10 11 11 12 12 13 14 15 16 17 18 19 19 20 21 21 22 21 21 20 18 17 15 14 12 11 10 10 12 14 16 19 21 22 22 22 23 23 23 24
8 9 9 10 10 11 11 12 12 13 14 15 16 17 19 19 20 21 22 22 22 21 21 19 16 15 13 11 9 9 8 10 12 14 17 19 21 22 22 22 23 23 24
8 9 9 9 9 10 10 11 12 13 14 15 16 17 19 19 19 20 22 22 22 22 21 19 17 14 13 11 8 7 7 8 10 12 15 17 19 21 22 22 23 23 24
8 8 8 8 9 10 10 11 12 13 14 15 16 17 19 19 20 21 22 22 21 22 21 20 17 14 12 10 8 6 6 7 9 11 13 15 17 20 21 22 23 23 23
7 7 8 8 9 10 10 12 12 13 14 15 16 17 18 19 20 21 22 22 22 22 22 20 18 15 12 9 7 5 4 5 7 9 12 14 16 19 20 21 22 22 22
6 7 8 8 9 10 10 11 13 14 15 16 16 17 18 18 19 20 21 21 21 22 21 20 18 15 12 9 7 5 4 4 6 8 11 13 16 18 19 20 21 21 21
6 7 7 8 9 10 11 12 13 14 15 16 17 17 18 18 19 20 21 21 21 21 21 20 18 16 13 10 8 5 3 3 4 6 9 12 14 17 18 20 20 21 22
Wind_Direction
292 298 302 304 306 308 312 318 321 323 325 325 325 322 320 317 313 310 305 299 294 288 283 279 274 270 266 262 258 255 255 249 247 245 246 247 248 250 253 259 270 283 287
297 302 301 303 306 309 312 315 318 319 322 323 322 321 321 319 316 311 308 305 300 295 290 284 277 274 268 263 259 255 253 250 245 243 244 245 245 246 248 253 259 269 266
299 303 306 303 304 308 311 314 317 320 322 322 323 323 322 319 316 314 311 309 304 300 296 291 284 278 270 264 261 256 251 249 245 243 243 244 243 244 245 248 250 254 255
299 304 308 305 307 311 313 316 319 320 321 323 324 324 323 320 316 314 313 311 307 304 300 294 288 282 273 268 263 258 253 249 244 243 242 242 242 241 243 243 244 244 243
303 305 308 309 312 315 318 319 320 322 323 325 326 325 323 321 319 316 313 310 308 307 304 298 292 285 277 269 264 260 254 250 243 242 242 241 241 239 241 240 241 239 239
305 307 308 309 313 315 318 322 323 324 326 327 327 326 324 323 321 319 317 313 309 306 304 301 295 290 281 274 266 259 256 252 245 243 242 240 240 239 240 240 239 237 236
305 307 308 309 313 314 319 323 325 326 327 328 328 327 325 324 323 322 320 317 313 309 305 300 296 291 285 276 269 262 255 250 245 242 242 240 239 238 237 237 237 235 229
308 309 309 310 315 317 321 324 325 327 328 329 329 329 328 327 326 324 322 319 316 313 308 302 297 294 286 277 270 263 255 249 246 242 240 238 237 236 236 235 232 229 221
309 308 309 314 318 320 321 324 326 328 330 330 330 331 329 328 326 325 322 320 318 315 310 305 300 295 288 279 271 265 257 251 247 242 238 236 236 234 233 232 229 226 219
311 312 310 314 319 321 323 324 326 329 330 330 331 332 330 328 327 325 323 321 319 316 312 306 300 295 290 283 273 265 258 252 245 243 237 234 235 234 230 229 227 224 217
312 316 316 316 317 321 323 325 328 330 332 332 333 333 331 328 327 325 323 322 320 317 313 308 301 295 290 286 278 269 260 251 244 241 236 233 233 232 228 226 225 222 218
313 317 318 318 321 325 326 327 330 332 333 334 334 333 332 329 327 325 323 323 321 317 313 309 304 299 292 285 279 271 261 252 246 240 236 232 231 231 227 223 223 221 219
317 318 319 319 322 324 325 329 332 333 335 336 336 336 335 332 329 326 324 323 321 318 315 310 304 299 294 287 279 271 261 254 246 239 235 232 230 229 226 222 221 220 218
320 321 321 322 323 324 327 332 334 335 336 338 338 337 336 334 331 328 326 325 322 319 317 313 306 301 296 289 281 273 263 253 246 239 233 230 229 228 224 221 221 220 218
324 326 325 326 327 327 330 334 334 337 339 340 340 339 338 335 333 332 330 328 325 322 319 316 310 304 297 290 282 274 265 253 245 238 232 228 227 226 224 223 221 219 217
328 330 330 330 331 331 333 335 337 339 342 343 342 341 340 338 336 335 334 332 329 325 321 319 315 308 300 291 283 274 265 254 245 237 230 226 224 225 225 222 220 219 216
331 332 333 335 337 337 338 339 340 341 343 344 344 343 342 342 340 339 338 336 332 329 325 322 318 312 305 297 286 274 263 254 245 237 229 225 223 224 224 222 219 216 216
334 338 338 338 340 340 340 340 341 342 344 345 346 345 345 344 344 343 343 340 336 332 330 327 323 316 310 302 290 275 262 251 242 233 229 224 221 222 223 220 218 215 214
343 342 343 341 341 341 341 342 342 345 346 347 347 346 347 348 349 348 347 345 342 338 335 331 327 321 314 306 293 279 263 249 240 231 227 222 220 220 220 219 216 214 213
346 343 342 343 343 343 344 345 345 347 347 348 348 348 349 349 350 351 351 349 347 345 342 337 331 325 319 311 298 283 265 249 238 230 224 219 219 219 219 217 216 215 214
346 345 345 345 343 342 346 348 349 349 348 349 349 349 350 350 351 353 352 352 351 350 347 342 337 330 326 318 304 287 269 251 238 229 222 218 218 217 217 218 215 216 216
344 344 347 346 346 344 346 348 349 349 349 349 349 349 350 350 352 353 353 353 353 353 350 347 342 337 331 325 312 291 273 253 237 226 219 218 217 216 217 216 215 214 215
352 350 350 349 350 348 347 348 349 349 348 348 349 349 350 350 351 353 354 355 356 356 354 351 348 345 340 333 321 303 279 255 235 222 218 217 215 214 216 216 214 215 215
356 354 355 356 354 352 349 348 348 348 347 348 349 349 349 350 352 354 355 356 358 359 359 357 355 353 351 344 334 317 290 258 231 223 220 219 215 213 215 214 214 215 214
351 351 354 356 355 354 352 350 350 349 348 349 349 349 350 350 351 353 355 357 358 360 2 2 1 360 357 355 350 335 305 268 239 228 224 222 219 217 214 214 213 212 213
352 352 354 356 357 356 355 353 352 351 351 350 351 351 351 350 350 352 355 358 359 0 2 4 3 4 4 3 1 352 320 280 249 236 227 222 221 220 218 216 215 215 214
Height
5881 5881 5881 5881 5880 5880 5879 5878 5877 5876 5875 5874 5873 5872 5871 5871 5870 5869 5868 5868 5867 5867 5866 5866 5866 5866 5867 5867 5867 5867 5868 5868 5869 5869 5870 5870 5870 5871 5871 5871 5872 5872 5872
5881 5881 5880 5880 5879 5879 5878 5877 5876 5875 5874 5873 5872 5871 5870 5870 5869 5868 5867 5866 5865 5865 5865 5864 5864 5864 5864 5865 5865 5865 5866 5866 5867 5868 5868 5869 5869 5870 5870 5871 5871 5871 5871
5880 5880 5880 5879 5879 5878 5877 5876 5875 5874 5873 5872 5871 5870 5869 5869 5868 5867 5866 5865 5864 5863 5863 5862 5862 5862 5862 5862 5862 5863 5863 5864 5865 5866 5867 5867 5868 5868 5869 5870 5870 5870 5871
5880 5879 5879 5878 5878 5877 5876 5875 5874 5874 5873 5872 5870 5869 5868 5867 5866 5865 5864 5863 5862 5861 5861 5860 5860 5859 5860 5860 5860 5860 5861 5861 5862 5863 5864 5865 5866 5867 5868 5868 5869 5869 5870
5879 5879 5878 5878 5877 5876 5875 5874 5874 5873 5872 5871 5869 5868 5867 5866 5865 5864 5862 5861 5860 5859 5859 5858 5857 5857 5857 5857 5857 5857 5858 5858 5860 5861 5862 5863 5864 5865 5866 5867 5868 5869 5869
5878 5878 5877 5877 5876 5875 5875 5874 5873 5871 5871 5870 5868 5867 5866 5864 5863 5862 5861 5859 5858 5857 5856 5855 5855 5854 5854 5854 5854 5854 5855 5855 5857 5858 5860 5861 5862 5864 5865 5866 5867 5868 5869
5878 5877 5876 5876 5875 5874 5874 5873 5872 5871 5870 5869 5867 5866 5864 5863 5861 5860 5859 5857 5856 5855 5854 5853 5852 5851 5851 5851 5851 5851 5852 5852 5854 5856 5857 5859 5860 5862 5863 5865 5866 5867 5868
5877 5876 5875 5875 5874 5874 5873 5872 5871 5870 5869 5867 5866 5864 5863 5861 5860 5858 5857 5855 5853 5852 5851 5850 5849 5848 5848 5847 5847 5848 5848 5849 5851 5853 5854 5856 5858 5859 5861 5863 5865 5866 5867
5876 5876 5875 5874 5873 5873 5872 5871 5870 5869 5868 5866 5864 5863 5861 5859 5858 5856 5854 5853 5851 5850 5848 5847 5846 5845 5845 5844 5844 5844 5845 5846 5848 5849 5852 5853 5855 5857 5859 5861 5863 5865 5867
5874 5874 5874 5873 5872 5871 5870 5870 5869 5868 5866 5865 5863 5861 5859 5858 5856 5854 5852 5850 5848 5847 5846 5844 5843 5843 5842 5841 5841 5841 5842 5843 5844 5846 5849 5851 5853 5855 5857 5859 5862 5864 5865
5873 5873 5872 5872 5871 5871 5870 5869 5867 5866 5865 5863 5862 5860 5858 5856 5854 5852 5850 5848 5846 5844 5843 5841 5840 5839 5839 5838 5838 5838 5838 5840 5841 5843 5846 5848 5850 5852 5855 5857 5860 5862 5864
5872 5872 5871 5870 5870 5869 5868 5867 5866 5865 5864 5862 5860 5858 5856 5854 5852 5850 5847 5845 5843 5841 5840 5838 5837 5836 5835 5835 5834 5835 5835 5836 5838 5840 5842 5845 5847 5849 5852 5855 5858 5860 5863
5871 5870 5870 5869 5868 5868 5867 5866 5865 5864 5862 5860 5859 5857 5854 5852 5850 5847 5845 5843 5841 5838 5837 5835 5833 5832 5831 5831 5831 5831 5831 5833 5834 5836 5839 5841 5844 5846 5849 5853 5856 5858 5861
5870 5869 5868 5868 5867 5866 5865 5864 5863 5862 5861 5859 5857 5855 5853 5850 5848 5845 5843 5840 5838 5835 5833 5832 5830 5829 5827 5827 5827 5827 5827 5829 5830 5832 5835 5838 5841 5843 5847 5850 5854 5857 5859
5869 5868 5867 5867 5866 5865 5864 5863 5862 5861 5859 5858 5856 5853 5851 5848 5846 5843 5840 5837 5835 5832 5830 5828 5826 5824 5823 5823 5822 5823 5823 5824 5826 5828 5831 5834 5837 5841 5844 5847 5851 5855 5858
5867 5867 5866 5866 5865 5864 5863 5862 5861 5860 5858 5856 5854 5852 5849 5847 5844 5841 5838 5835 5832 5830 5827 5825 5822 5820 5819 5818 5818 5818 5819 5820 5822 5824 5827 5830 5834 5837 5841 5844 5848 5852 5856
5866 5866 5865 5864 5864 5863 5862 5861 5860 5859 5857 5855 5853 5851 5848 5845 5842 5839 5836 5833 5830 5827 5824 5821 5818 5816 5815 5814 5814 5814 5815 5816 5818 5820 5823 5827 5831 5834 5838 5842 5846 5849 5853
5865 5864 5864 5863 5863 5862 5861 5860 5859 5858 5856 5854 5852 5850 5847 5844 5840 5837 5834 5831 5828 5824 5821 5818 5815 5813 5811 5810 5810 5810 5810 5812 5814 5816 5820 5823 5827 5831 5835 5839 5843 5847 5850
5864 5863 5863 5862 5861 5861 5860 5859 5858 5857 5855 5853 5851 5848 5846 5842 5839 5836 5833 5829 5825 5822 5818 5815 5812 5810 5808 5807 5806 5806 5807 5808 5810 5813 5816 5820 5824 5828 5832 5836 5840 5844 5848
5863 5862 5862 5861 5860 5860 5859 5858 5857 5855 5854 5852 5850 5847 5844 5841 5838 5835 5831 5828 5824 5820 5816 5813 5810 5807 5805 5804 5803 5803 5804 5805 5807 5809 5813 5816 5820 5825 5829 5833 5837 5841 5846
5862 5861 5861 5860 5860 5859 5858 5857 5856 5854 5853 5851 5849 5846 5844 5840 5837 5834 5830 5827 5823 5819 5815 5811 5808 5805 5803 5802 5801 5801 5801 5802 5804 5807 5810 5813 5818 5822 5826 5830 5834 5838 5843
5861 5861 5860 5859 5859 5858 5857 5856 5855 5853 5852 5850 5848 5846 5843 5840 5837 5833 5830 5826 5822 5818 5813 5809 5806 5804 5802 5800 5799 5799 5800 5801 5802 5804 5807 5811 5815 5819 5823 5827 5831 5836 5840
5860 5860 5859 5859 5858 5857 5856 5855 5854 5852 5851 5849 5847 5845 5842 5839 5836 5832 5829 5825 5821 5817 5813 5809 5805 5803 5800 5799 5798 5798 5798 5799 5800 5803 5806 5809 5812 5816 5820 5824 5828 5832 5837
5860 5859 5859 5858 5857 5857 5856 5854 5853 5852 5850 5848 5846 5844 5841 5838 5835 5832 5828 5825 5821 5817 5813 5809 5805 5802 5800 5799 5798 5797 5798 5798 5800 5802 5804 5807 5810 5814 5818 5821 5826 5830 5834
5860 5859 5858 5857 5857 5856 5855 5854 5852 5851 5849 5847 5845 5843 5840 5838 5835 5831 5828 5824 5821 5817 5813 5809 5806 5803 5800 5799 5798 5797 5798 5798 5799 5801 5803 5806 5808 5812 5815 5819 5823 5827 5831
5859 5858 5858 5857 5856 5855 5854 5853 5852 5850 5848 5846 5844 5842 5839 5837 5834 5831 5828 5824 5821 5817 5813 5810 5807 5804 5802 5800 5798 5798 5798 5798 5799 5800 5802 5804 5807 5810 5813 5817 5821 5824 5828